Wind_Speed
9 9 9 9 10 10 11 11 12 12 12 12 12 11 11 11 11 10 10 9 8 8 8 8 7 6 6 5 4 4 5 6 7 9 9 8 8 5 2 2 5 7 8 9 9 9 12 16 17 15 12 11 9 8 7 7 7 7 6 5 5 8 8 8 10 10 9 10 11 9 8 6 7 10 8 6 6 3 2 1 2 6 7 6 7 11 13 14
9 9 9 10 10 11 12 12 12 12 12 12 12 12 12 12 12 11 10 10 9 9 8 8 7 6 5 4 3 2 3 3 3 6 10 9 8 6 4 1 2 4 7 8 9 10 14 16 16 16 15 13 12 9 7 6 6 6 6 5 6 6 7 9 9 8 8 8 10 10 8 7 7 7 8 8 6 4 4 1 3 4 7 8 10 12 12 13
9 9 10 11 12 12 13 13 13 13 13 13 13 13 14 13 13 12 11 10 10 9 9 9 8 7 5 4 3 1 1 1 2 5 11 10 7 6 4 2 2 2 6 7 8 10 14 15 15 14 15 16 14 12 9 6 5 5 5 4 5 4 6 10 9 7 7 7 10 12 9 7 8 7 7 8 6 6 5 1 3 2 6 9 12 13 12 13
10 11 12 12 13 14 14 14 14 14 14 15 15 14 14 14 14 13 12 11 10 10 10 9 9 8 5 5 3 1 2 3 3 4 9 10 9 6 5 5 4 0 4 5 6 8 12 14 14 12 13 15 16 14 12 9 6 5 5 4 3 4 7 10 10 8 8 7 10 12 10 5 7 8 5 6 6 5 5 2 2 3 5 8 11 14 14 14
12 13 13 14 14 15 15 15 15 16 16 16 15 15 14 14 14 13 12 11 11 10 10 10 10 9 6 4 3 1 2 3 1 2 5 8 11 10 8 8 5 2 2 4 6 8 11 14 13 12 11 13 16 14 13 12 9 6 4 4 2 3 8 10 10 10 8 7 9 12 12 6 6 8 6 5 4 4 5 1 2 5 5 6 8 12 14 14
13 14 14 15 15 16 16 16 16 16 16 16 15 14 14 13 13 13 12 11 11 10 10 10 10 10 8 5 3 2 1 2 1 1 2 5 10 11 10 9 6 4 2 3 7 7 11 15 14 13 10 10 14 13 12 13 11 7 4 3 1 3 8 11 11 10 8 8 9 11 12 9 7 8 7 5 1 1 2 3 4 7 7 6 8 11 13 14
13 14 14 15 15 15 15 16 16 16 15 15 15 14 13 13 13 13 12 11 10 10 10 10 11 11 10 6 4 2 1 3 2 1 1 2 5 8 9 9 9 6 3 1 6 7 11 15 14 13 10 9 11 12 11 11 12 9 5 2 1 3 8 12 11 11 10 9 8 10 11 11 10 8 7 6 2 1 2 4 6 7 9 9 10 11 12 13
13 14 14 14 14 14 14 14 14 14 14 14 14 14 13 13 13 13 12 12 10 10 10 10 10 11 11 8 4 2 3 4 4 0 1 1 2 5 7 10 10 8 5 2 3 6 10 15 13 12 10 10 9 10 14 11 10 11 8 4 1 2 7 12 11 11 11 10 8 9 10 11 13 9 8 7 4 3 2 4 7 8 10 10 10 11 13 14
12 13 13 13 13 13 13 13 13 13 13 13 13 13 13 13 13 13 13 12 11 10 11 10 10 10 11 8 6 4 5 6 6 4 2 1 2 3 6 9 11 10 7 2 2 5 7 13 13 11 9 11 8 9 15 12 8 10 10 6 2 1 5 8 10 10 11 11 8 10 10 10 12 10 8 6 3 2 2 3 6 8 9 10 11 11 13 14
12 12 12 12 12 12 12 12 12 12 12 12 13 13 13 13 13 13 13 12 11 11 11 11 10 10 10 9 7 5 5 7 8 8 5 2 3 3 5 8 11 11 9 3 5 9 9 12 14 11 10 11 9 9 14 11 6 8 11 8 4 1 2 6 9 11 11 11 10 12 12 9 11 11 8 6 4 3 2 2 5 7 8 10 12 12 13 14
11 12 12 12 12 12 12 12 12 12 12 12 12 12 12 13 12 13 13 13 12 11 12 11 11 10 9 8 6 5 9 11 11 11 6 2 4 3 3 7 10 12 10 6 8 12 9 10 11 9 11 13 11 11 13 11 5 5 10 9 5 3 2 2 7 10 11 12 11 12 13 11 11 12 9 7 6 4 3 2 5 6 6 9 12 12 14 13
11 11 11 11 11 12 12 12 12 12 12 12 12 12 12 12 12 12 12 12 11 11 12 12 11 10 9 6 4 7 11 12 12 12 8 3 4 5 4 5 9 12 11 9 9 8 4 6 6 7 10 12 12 12 11 9 5 4 8 8 5 3 3 1 4 7 8 9 11 12 13 13 13 15 13 9 7 6 5 4 4 5 5 8 10 10 12 13
10 10 10 11 11 11 11 11 11 11 11 11 11 11 12 12 12 12 12 11 10 10 11 12 11 11 8 4 6 10 11 12 12 11 10 6 5 7 6 5 9 12 13 13 11 9 5 3 4 6 7 9 11 11 9 7 5 6 9 8 6 4 3 2 3 6 6 7 9 12 13 13 15 18 15 11 9 10 9 7 6 7 7 7 8 7 9 11
10 9 10 11 11 11 10 10 10 10 11 11 11 11 11 11 12 12 12 11 10 9 10 10 9 9 7 4 8 10 9 11 11 9 9 7 6 8 7 6 8 13 15 15 12 10 8 4 4 7 6 8 11 11 9 7 7 9 10 8 6 5 5 2 2 4 6 6 8 12 12 12 15 20 19 15 12 12 11 10 10 9 9 8 8 7 8 9
10 9 9 10 10 10 9 9 9 9 10 10 10 10 10 11 11 11 11 11 11 10 10 9 8 7 6 4 7 7 6 8 7 6 7 7 7 8 8 7 7 12 16 16 14 13 12 10 10 8 5 8 10 10 11 10 9 11 10 8 6 6 5 3 0 3 6 6 8 11 10 10 15 18 20 19 16 14 14 14 13 11 11 11 10 8 9 10
11 10 10 9 9 8 8 8 8 8 8 8 9 9 9 9 9 10 10 10 10 11 11 9 7 6 6 4 2 2 2 3 3 5 7 6 7 7 8 9 8 11 15 15 14 15 14 12 11 7 5 8 10 9 11 11 12 13 11 9 7 6 5 3 0 2 5 7 7 9 10 11 13 14 16 21 20 18 19 18 15 12 12 14 13 11 12 12
10 10 10 9 8 7 7 6 7 7 7 7 8 8 8 8 9 9 9 9 9 10 10 8 6 5 3 3 3 3 3 2 2 2 4 4 5 6 9 11 8 8 12 14 14 13 11 8 8 7 7 9 11 12 11 13 15 15 11 8 6 5 5 3 2 3 5 6 5 8 11 10 11 10 11 17 23 23 21 20 18 15 15 16 15 15 14 15
10 10 9 8 7 6 6 6 7 7 7 7 7 7 8 8 8 9 9 9 8 9 8 7 5 1 3 5 4 4 4 6 6 4 3 2 3 6 9 11 8 6 7 10 12 12 8 7 8 10 10 12 14 16 16 16 13 10 9 7 6 5 5 4 3 4 5 5 6 8 10 9 9 9 8 13 22 26 25 24 22 20 19 18 18 17 16 16
9 9 9 8 7 6 5 6 6 6 6 6 6 6 7 7 8 9 9 8 8 8 8 6 3 3 5 2 1 2 5 7 6 4 4 4 2 2 8 12 12 9 8 9 10 11 10 8 11 14 14 15 15 16 18 15 10 9 10 10 8 8 8 6 3 3 4 5 7 8 6 8 7 6 6 9 18 24 27 28 25 24 23 20 19 20 18 17
9 8 8 7 7 6 6 6 5 5 6 5 5 6 6 7 8 8 8 8 8 8 8 7 5 1 4 5 3 3 4 4 4 5 6 6 6 2 7 12 15 15 14 12 9 8 10 11 15 17 15 15 15 15 16 15 14 13 11 11 12 11 10 7 4 4 5 6 7 6 5 7 6 3 3 8 15 22 27 30 29 27 26 23 22 21 19 17
8 7 7 7 7 6 6 5 5 5 5 5 5 5 6 7 7 6 5 5 8 8 8 9 7 2 5 6 4 6 6 3 0 1 5 6 6 4 5 12 17 18 16 14 11 9 11 14 16 15 10 10 13 13 13 14 15 16 12 14 16 15 13 8 5 5 6 7 6 7 8 8 8 4 2 7 13 18 25 31 30 30 28 25 24 24 22 18
6 6 6 7 7 6 6 5 5 4 4 5 5 5 6 6 7 6 5 4 7 8 8 10 10 6 2 2 3 7 9 7 3 3 7 7 3 3 3 8 16 18 16 14 14 13 15 18 16 10 6 8 10 11 15 15 14 15 14 14 17 17 15 10 7 7 8 8 6 7 10 8 9 7 3 6 9 12 20 28 30 30 29 27 26 25 24 21
4 4 5 6 6 7 6 6 5 4 4 5 5 5 5 6 7 7 6 7 8 9 11 14 15 13 9 4 3 5 7 7 5 3 5 7 5 4 5 5 11 13 14 16 16 15 16 18 14 10 9 12 14 12 14 17 17 18 16 16 18 18 16 11 8 8 10 8 6 6 9 8 10 13 12 8 6 8 15 23 28 29 29 28 27 26 24 23
3 3 3 5 6 6 6 6 5 5 5 5 5 4 4 5 6 7 7 8 9 9 10 13 16 17 15 10 6 5 6 6 4 1 5 7 6 7 7 7 7 9 11 14 16 17 17 14 10 11 13 15 17 14 12 16 20 21 17 18 19 16 16 11 10 9 11 11 10 9 9 11 14 16 16 14 10 10 13 19 25 28 30 29 28 27 26 24
2 1 2 4 5 5 5 5 5 4 5 4 4 2 2 4 6 7 7 8 9 8 8 10 12 16 16 14 13 9 6 7 7 3 5 8 7 9 7 5 7 10 10 10 12 17 19 14 11 14 15 15 18 17 15 15 17 17 15 16 19 15 12 11 11 11 13 14 16 15 11 10 14 17 15 14 13 13 14 17 19 24 29 32 31 30 28 27
1 1 2 3 3 4 4 4 3 3 3 3 3 1 2 4 6 7 8 10 9 9 8 8 9 11 13 12 15 12 5 5 6 3 2 4 6 8 7 6 8 8 10 11 13 16 17 14 14 18 18 19 22 21 19 16 16 16 14 14 13 12 9 12 16 15 15 13 12 16 17 10 11 16 16 16 14 14 16 16 17 20 26 31 33 32 31 29
0 1 2 2 2 3 3 2 2 2 1 1 1 1 4 5 4 6 8 8 6 7 6 7 8 8 11 11 12 11 7 5 4 1 0 1 4 7 8 8 9 8 8 10 14 17 15 13 14 16 17 18 20 19 17 15 16 17 14 10 9 8 9 12 17 17 17 16 11 15 21 15 14 15 14 18 19 16 18 17 17 20 24 28 32 33 33 31
2 2 3 3 3 3 2 2 2 2 4 4 3 4 5 5 5 6 6 4 4 5 2 6 8 7 10 13 9 8 8 5 5 2 2 1 3 5 6 8 9 9 8 10 16 18 15 15 15 14 16 18 16 14 13 13 16 15 11 10 9 8 10 12 14 18 18 17 14 17 19 13 14 17 13 18 24 21 20 18 16 18 19 23 28 31 34 32
4 4 4 4 4 4 5 4 3 3 4 5 7 7 7 7 7 7 5 4 5 5 3 3 7 9 12 14 9 7 6 2 5 1 1 2 3 3 5 7 8 10 9 11 19 21 18 18 18 16 18 18 14 12 13 12 15 15 11 11 12 10 12 13 11 15 15 14 15 17 21 14 10 16 15 18 25 21 17 15 13 14 15 18 23 27 31 33
4 5 6 5 4 4 6 6 5 4 5 6 9 10 10 10 8 6 5 5 5 10 7 2 9 13 12 11 7 9 8 2 3 5 3 1 1 3 4 6 7 10 11 12 18 23 23 22 20 19 17 15 12 11 11 8 9 16 16 16 14 11 13 14 10 11 9 10 12 12 18 17 8 11 15 18 19 12 7 10 11 13 14 15 19 23 28 31
4 5 6 6 6 5 5 6 6 6 6 6 6 8 11 14 13 8 5 3 2 10 11 6 11 12 11 11 10 12 12 6 7 11 7 4 4 4 6 8 6 5 6 9 13 17 21 21 21 22 20 15 12 12 12 8 7 11 14 15 11 5 6 9 10 10 5 4 10 9 12 15 11 12 15 17 18 12 8 10 11 13 13 13 15 20 25 29
4 5 5 6 6 6 6 7 7 8 8 7 7 8 9 12 15 11 8 4 2 10 12 8 10 9 11 13 12 12 10 6 7 12 10 6 5 6 5 6 7 3 4 7 9 11 14 17 18 21 19 13 12 14 13 11 11 9 9 10 6 1 1 3 5 5 4 7 11 11 11 11 12 17 16 16 17 14 13 12 9 9 9 10 12 15 21 25
4 5 5 5 6 7 8 9 10 10 10 9 10 10 10 11 11 10 12 10 8 11 10 8 9 10 12 12 10 8 3 1 2 7 8 7 8 9 6 6 8 6 6 7 8 11 14 13 11 12 12 11 12 15 15 11 11 12 9 6 5 2 3 1 4 2 4 9 10 10 9 9 13 17 16 16 15 12 13 13 12 8 6 7 10 14 18 22
5 5 5 4 5 7 9 10 11 10 9 9 9 10 14 13 9 9 13 13 11 8 7 9 10 11 14 16 12 5 4 5 4 3 2 3 7 7 6 7 9 8 6 5 6 8 11 10 6 9 8 7 8 11 15 14 13 14 13 10 8 6 4 3 3 3 4 7 8 7 5 5 10 13 12 11 9 10 12 14 14 10 6 6 10 15 18 21
6 6 6 4 5 8 11 11 9 8 7 7 8 12 16 13 9 11 14 13 11 9 9 10 9 12 15 14 11 8 7 8 4 3 7 6 3 3 3 1 2 5 6 5 4 4 8 10 8 11 9 5 6 6 9 16 18 14 14 17 15 12 12 11 10 10 9 6 5 7 7 7 9 11 10 8 6 9 10 13 15 13 11 10 12 14 16 19
7 7 6 6 7 8 11 11 8 6 6 9 13 17 15 11 10 12 12 10 9 11 12 9 9 14 16 14 13 10 8 8 5 4 6 7 6 6 7 7 7 4 4 3 3 3 7 12 12 12 9 6 7 5 4 11 16 13 12 18 19 17 18 18 15 13 10 2 2 7 7 9 10 9 8 8 9 9 12 16 16 15 13 11 10 11 12 16
8 9 9 10 10 10 10 10 8 7 8 12 19 19 13 11 12 11 10 7 6 10 12 9 11 14 15 15 16 14 12 9 7 8 7 5 4 5 4 5 6 6 6 5 4 4 8 15 17 14 12 10 9 11 10 8 10 15 18 15 13 13 16 16 11 5 4 1 3 5 2 4 6 6 7 8 6 12 17 19 18 16 13 10 8 9 11 12
10 11 13 14 15 13 10 9 8 8 9 11 16 16 12 11 10 9 9 6 5 9 10 9 11 13 13 14 13 14 14 10 8 10 7 5 5 7 9 5 3 4 4 4 4 5 8 14 18 15 12 12 9 12 15 10 5 7 16 16 11 8 9 11 7 2 2 1 2 3 1 1 3 5 4 6 13 17 16 18 17 13 10 9 9 9 10 12
12 13 14 16 16 13 11 10 9 9 11 12 12 11 10 8 6 8 8 6 4 7 10 10 10 11 12 13 11 11 14 14 12 11 7 6 6 7 9 7 6 7 5 5 5 5 7 9 14 15 11 10 7 3 8 12 8 4 9 11 10 10 9 9 8 5 4 3 1 2 1 2 2 5 4 14 19 15 15 16 12 8 7 8 8 8 9 12
13 12 12 14 13 10 10 10 9 9 11 12 10 8 8 5 5 8 8 6 3 4 9 11 10 10 9 9 8 9 14 15 13 11 7 7 8 7 6 8 10 11 10 9 9 9 7 7 13 18 16 12 6 3 10 17 16 8 5 14 16 8 11 9 8 10 7 3 2 2 2 3 2 4 7 17 18 12 12 10 5 6 6 5 6 6 6 8
11 10 13 16 13 10 10 10 9 8 9 10 8 6 7 6 7 9 8 5 1 1 6 9 8 9 8 7 7 8 11 11 10 8 5 6 9 7 7 10 12 13 13 13 12 11 9 9 14 19 20 16 7 6 13 16 15 12 13 22 25 15 11 8 7 11 9 3 4 5 1 2 4 1 5 15 17 10 7 3 1 5 3 2 4 4 5 5
11 11 14 16 13 11 12 13 11 9 9 9 7 5 7 8 9 10 8 6 1 1 2 4 7 8 7 7 8 7 7 9 8 7 5 5 8 8 9 11 12 12 12 12 10 9 9 10 13 15 19 18 13 12 16 15 11 7 10 21 26 23 17 9 5 7 6 2 4 6 2 2 5 4 5 12 14 10 6 3 2 1 1 2 3 5 7 7
11 11 11 11 10 9 8 11 11 10 9 7 6 6 7 8 11 11 9 8 7 4 2 3 7 8 6 6 7 5 6 8 8 8 7 7 9 9 10 12 13 12 12 10 9 10 8 7 11 14 17 21 21 19 17 12 8 6 9 20 26 26 21 11 4 8 9 5 4 4 1 3 7 9 9 10 12 12 9 7 5 2 2 3 5 7 10 10
13 14 12 10 11 9 7 8 6 8 9 8 7 8 8 8 11 10 8 10 11 8 5 5 7 7 5 7 7 5 6 8 7 7 8 7 7 8 9 12 13 11 10 8 8 10 7 5 9 12 12 13 13 11 12 13 8 8 13 21 26 26 23 13 1 9 11 8 5 3 1 6 10 10 10 9 11 13 10 7 6 4 4 5 7 9 12 12
14 15 12 9 9 6 5 4 2 3 6 7 8 9 8 10 10 7 7 9 8 6 5 4 4 3 7 9 9 6 6 7 7 5 4 3 3 4 6 9 9 9 9 6 6 8 6 6 8 6 4 4 4 4 6 12 14 12 14 21 24 23 23 15 7 9 3 2 6 5 8 12 15 14 13 11 9 9 8 8 8 7 6 8 10 13 15 15
9 11 10 6 6 5 2 1 3 2 3 4 4 6 7 8 7 5 6 8 4 2 3 5 4 5 7 9 8 6 5 5 5 4 1 1 1 0 2 4 5 7 7 6 6 7 6 6 5 4 3 4 5 7 9 13 16 12 14 20 20 18 18 14 9 9 5 2 9 15 17 19 22 20 15 13 8 6 6 6 6 7 8 9 11 14 16 17
5 10 11 7 6 6 3 3 5 4 1 3 3 3 1 3 7 6 7 8 6 3 5 7 8 7 8 7 6 5 5 5 5 5 4 3 3 2 1 1 3 5 5 5 6 6 6 6 5 6 7 6 7 8 7 10 12 10 12 15 14 14 15 14 11 8 4 5 10 18 23 22 23 21 16 13 10 7 5 3 3 6 8 9 10 12 15 15
3 7 12 10 6 3 1 2 5 5 4 2 1 1 4 5 7 7 7 8 9 8 7 7 8 7 6 5 5 6 7 8 8 8 9 9 9 8 7 4 1 2 3 5 6 7 8 8 8 9 10 11 11 7 6 7 8 6 9 9 8 11 14 14 13 9 5 4 5 13 22 24 21 18 17 14 11 7 4 2 3 6 7 8 8 10 11 12
3 5 11 9 3 2 3 1 2 3 4 4 2 2 5 6 6 7 6 5 7 10 10 9 10 9 6 3 5 8 10 11 12 12 12 14 15 15 14 12 7 4 4 5 6 7 8 8 9 11 12 12 11 7 7 4 4 3 7 6 5 8 10 11 11 11 7 4 5 10 19 20 18 18 18 14 9 6 4 4 5 6 6 7 6 7 8 10
3 5 9 7 4 6 7 4 4 3 2 4 4 4 6 9 7 6 5 5 6 11 14 11 12 11 6 4 7 9 11 13 15 16 17 19 18 17 18 17 14 10 5 3 4 6 7 7 8 9 9 8 5 4 6 3 4 4 4 3 3 6 9 10 11 13 9 5 8 13 15 15 15 17 18 15 11 7 6 6 6 5 3 2 3 5 7 8
5 7 9 8 7 8 6 4 5 6 4 4 7 7 8 12 9 6 5 6 7 12 13 9 11 11 7 8 12 12 11 10 11 13 14 14 14 13 13 12 11 11 9 5 3 4 7 9 9 9 9 8 3 3 7 5 4 3 1 1 2 6 8 11 12 12 10 5 6 9 7 6 12 18 19 18 13 8 7 7 5 4 4 3 2 2 4 6
7 10 11 9 7 6 3 3 4 5 3 4 7 6 8 11 10 7 6 6 10 13 10 7 12 13 12 15 18 14 10 8 10 9 7 6 7 7 7 7 6 5 8 8 7 6 6 8 10 9 9 9 8 6 7 3 2 3 3 4 4 5 4 6 7 8 7 2 6 10 9 5 12 20 21 18 12 7 7 7 5 3 2 3 2 1 2 4
Wind_Direction
259 264 271 276 282 286 290 293 295 298 299 301 303 305 306 308 311 311 311 314 316 319 322 326 330 329 330 326 314 287 270 255 231 207 190 182 161 164 186 71 39 38 40 60 71 55 46 43 43 47 53 62 65 74 77 71 76 87 88 87 120 149 156 154 154 151 154 148 143 137 125 131 126 141 174 178 174 183 153 170 114 142 157 158 167 175 177 173
264 270 276 280 285 287 290 293 295 297 298 300 300 301 302 303 304 303 304 306 309 312 317 323 327 335 342 343 341 302 280 268 244 198 188 193 174 179 190 96 24 38 44 65 75 56 54 49 46 54 58 59 58 59 65 66 69 79 76 81 121 150 162 156 152 158 163 148 149 140 129 154 150 162 193 186 191 183 183 248 55 136 169 168 170 176 177 173
270 274 278 282 285 287 290 292 294 295 295 297 297 298 299 299 298 297 297 297 301 304 309 314 317 328 340 354 0 308 311 114 131 163 190 210 195 185 192 192 280 39 51 70 76 54 57 54 50 57 53 51 53 53 52 58 67 69 64 65 106 133 162 164 162 168 173 154 148 140 135 163 162 176 205 199 202 194 207 290 70 160 192 175 171 176 174 170
273 277 280 282 285 287 289 291 292 293 294 294 295 296 296 296 295 293 293 292 294 297 301 305 308 317 331 354 357 357 91 116 116 162 194 213 207 201 203 208 241 136 51 66 83 63 64 62 55 52 44 42 44 48 45 48 56 56 60 57 84 139 162 168 174 178 178 166 158 149 141 158 165 160 183 209 217 226 250 320 98 173 191 178 169 174 172 171
275 278 280 282 285 287 288 290 291 292 293 293 293 294 293 292 291 291 291 290 290 292 294 297 300 306 317 340 344 358 128 141 107 173 194 211 206 206 208 209 228 236 24 59 91 79 69 64 55 46 34 32 35 41 45 42 39 30 31 40 77 167 178 172 173 178 182 176 162 156 153 154 159 152 167 208 225 274 274 287 134 149 167 188 173 173 172 173
276 278 280 282 285 286 288 289 289 290 290 291 291 290 290 289 288 288 289 289 289 289 290 291 294 298 306 324 330 329 161 172 2 97 170 209 208 209 206 202 216 237 287 70 89 84 69 60 49 39 27 23 28 33 41 36 27 20 12 9 69 163 191 185 174 174 182 177 156 159 164 150 148 161 180 207 189 318 252 148 142 149 159 179 176 175 173 172
279 280 282 284 285 286 287 288 288 288 288 288 288 287 286 285 285 286 286 288 287 288 287 287 289 291 297 308 317 321 198 224 283 34 74 214 214 213 204 196 207 221 246 40 85 93 74 62 45 32 25 20 26 28 29 30 27 24 32 41 83 134 187 197 186 180 183 178 162 172 178 160 163 179 191 204 179 136 138 145 157 158 161 169 176 179 173 170
283 284 285 287 288 289 289 289 289 289 288 288 286 285 284 283 283 283 284 285 285 285 284 282 285 286 290 297 305 279 217 250 277 64 59 280 234 222 206 198 205 208 226 294 86 110 77 65 47 26 17 11 25 24 12 18 31 27 36 54 41 139 188 202 195 191 191 189 180 179 184 172 169 180 199 202 173 131 108 148 161 158 164 167 173 178 175 172
288 289 290 291 291 292 293 293 294 294 293 292 290 288 286 284 283 283 283 283 283 283 281 281 279 280 284 288 292 271 240 266 282 272 274 283 261 244 215 202 204 206 209 274 82 113 75 63 47 22 1 358 8 7 0 7 32 29 33 42 22 163 196 205 199 199 201 201 197 186 188 179 167 174 199 198 172 159 129 152 162 159 166 167 168 174 176 175
293 293 294 294 295 296 296 297 297 297 297 297 296 295 293 291 288 286 285 283 283 282 281 281 278 279 281 283 288 282 254 251 260 261 255 243 248 248 221 206 204 202 197 201 97 88 72 58 41 10 338 334 333 338 349 356 13 24 28 38 46 24 230 217 211 210 211 211 209 200 197 190 174 178 197 204 200 192 176 189 176 166 165 166 165 165 171 176
296 296 297 297 298 297 297 298 298 299 299 299 299 298 298 297 295 293 289 286 285 283 281 281 281 280 278 285 289 264 252 249 255 260 254 238 249 257 232 209 204 198 187 170 105 85 76 57 32 344 309 304 307 323 336 341 341 7 17 30 46 21 342 242 221 217 220 217 212 207 204 202 183 175 188 200 198 195 209 234 193 176 162 164 166 163 166 172
296 297 298 297 297 296 297 298 298 299 299 299 299 298 299 296 296 295 293 292 288 285 283 281 283 281 282 294 267 241 254 262 266 271 275 264 232 243 238 205 203 198 180 158 131 121 116 46 3 290 279 283 299 318 326 329 315 333 357 10 24 20 36 40 205 202 210 211 209 206 207 210 186 173 188 194 188 197 215 243 219 200 177 164 168 165 164 170
298 298 296 295 294 294 297 298 298 299 298 298 298 298 296 293 290 287 289 292 292 290 286 283 283 283 289 288 248 250 263 270 275 279 284 283 228 224 229 205 198 196 182 166 158 165 168 51 332 270 268 273 289 300 303 307 293 318 336 342 350 352 27 49 186 187 195 196 196 200 208 214 190 176 182 184 193 205 203 217 228 221 210 181 170 173 171 176
301 298 294 292 291 293 295 296 297 297 296 297 296 296 294 293 290 286 286 286 288 291 288 289 292 292 297 285 263 268 271 273 283 288 282 283 250 220 217 210 196 194 188 181 182 186 173 152 223 245 255 256 271 283 287 293 294 312 321 326 332 339 3 14 193 197 208 200 188 196 209 211 192 182 178 179 199 211 198 203 220 224 221 202 185 186 184 187
296 295 294 292 292 292 291 291 292 293 295 296 295 295 294 294 294 291 289 286 284 284 284 294 305 311 322 309 276 276 283 285 289 282 269 269 255 229 215 213 200 195 193 191 203 200 178 176 205 223 240 243 256 276 283 284 290 300 302 304 310 318 337 344 205 191 212 209 193 198 207 199 190 189 189 189 197 204 200 204 213 215 215 211 205 198 197 204
288 289 292 295 299 295 290 287 286 289 291 293 294 295 295 295 296 295 292 287 282 279 281 291 304 323 353 7 315 305 338 311 281 259 262 259 247 230 209 208 198 190 190 192 205 199 180 185 210 229 236 238 252 274 279 272 272 283 286 289 297 305 315 315 221 192 217 224 209 200 201 197 193 194 199 200 196 195 200 208 211 209 211 214 212 205 206 211
283 284 286 292 300 297 291 281 278 283 287 293 300 302 302 300 299 296 293 290 286 283 284 286 292 315 8 74 99 95 83 359 338 301 280 267 245 226 210 205 182 167 183 192 202 196 181 188 213 232 220 218 249 264 259 255 262 270 271 273 287 293 292 279 267 256 237 236 221 205 208 209 206 203 204 203 200 198 198 205 211 210 212 214 211 209 211 212
279 278 279 283 289 290 284 274 273 279 285 297 306 312 312 307 304 301 300 302 298 295 294 292 291 307 109 121 117 88 55 8 1 7 341 318 250 228 219 204 167 152 189 203 211 200 190 205 214 235 234 222 243 253 247 251 264 274 269 274 292 279 274 283 285 277 261 245 216 212 215 213 212 207 204 203 203 202 198 201 209 211 213 214 209 211 216 215
277 273 272 270 272 275 272 270 273 279 288 299 309 315 313 311 313 314 315 318 319 312 304 305 295 156 151 184 196 54 42 18 6 12 2 353 349 237 217 200 175 181 211 223 228 214 212 229 228 236 232 216 228 241 246 256 273 294 292 287 293 278 276 300 303 267 266 260 233 222 209 202 203 191 191 201 202 203 200 200 206 209 213 216 212 213 217 218
277 271 265 260 259 262 265 271 276 281 288 296 305 311 317 323 321 327 333 325 330 330 318 330 345 185 218 247 263 319 358 7 15 34 15 348 348 331 209 196 181 187 210 224 235 230 227 232 231 232 224 211 219 230 245 262 267 275 282 280 277 264 266 298 313 256 242 254 245 229 209 197 192 159 169 197 198 200 200 201 205 206 211 217 215 214 217 221
278 269 260 252 248 250 259 266 271 279 286 293 304 314 324 327 322 343 5 331 333 346 343 359 24 115 220 241 262 301 319 327 141 18 325 322 338 323 218 199 191 192 204 218 234 242 240 238 232 233 233 221 221 226 245 266 266 262 269 276 268 252 256 288 299 250 237 252 246 228 232 207 183 157 139 195 202 203 202 203 207 209 213 218 215 214 216 220
283 271 257 246 240 243 251 257 264 274 284 293 303 315 322 326 332 357 37 24 7 21 29 39 58 86 158 244 296 301 305 302 261 258 286 287 286 304 271 207 202 203 200 207 228 236 240 246 238 225 228 231 238 249 258 265 258 254 266 271 262 252 251 264 261 234 234 252 251 237 245 228 203 208 199 195 208 212 207 207 211 214 217 218 215 214 214 214
292 274 254 240 236 239 244 251 258 267 280 290 296 311 325 336 348 4 32 44 51 62 64 63 61 52 50 59 22 325 315 311 303 300 281 267 241 258 304 252 214 215 210 207 223 236 240 246 243 234 245 253 261 269 268 266 252 247 259 264 261 251 238 245 258 237 231 246 256 247 249 241 223 226 231 225 211 210 209 210 213 218 221 220 218 217 217 215
305 276 246 231 230 234 240 248 252 261 268 273 287 308 329 346 10 28 41 65 80 84 75 64 51 41 41 46 32 5 1 357 359 357 263 267 247 244 281 288 242 225 219 213 223 241 250 253 258 261 263 268 273 273 264 259 252 248 255 267 268 245 230 255 283 258 238 240 245 244 255 252 232 228 232 226 215 207 203 206 211 216 220 220 220 218 218 219
315 264 225 213 220 229 235 243 249 255 258 261 275 292 336 17 51 54 69 96 83 75 81 64 47 43 45 45 39 37 31 22 40 82 242 256 248 243 259 280 249 234 232 230 232 244 254 260 269 269 264 266 271 269 262 258 259 251 245 267 271 245 236 260 265 246 224 234 245 234 244 262 236 231 232 222 219 213 198 201 210 214 216 217 219 219 218 220
303 222 199 196 213 222 227 237 234 236 248 268 273 262 52 62 75 67 93 112 81 68 81 64 48 44 42 39 32 33 40 28 39 62 231 248 252 243 235 243 255 255 244 244 252 256 257 255 259 267 269 269 266 264 262 255 259 259 252 265 258 234 249 258 250 242 222 239 265 231 226 249 244 237 229 217 222 221 208 205 207 211 214 217 220 220 219 221
306 174 167 173 190 195 212 215 196 202 174 112 288 74 73 82 88 83 102 108 78 81 81 43 39 42 33 22 18 20 23 41 60 43 318 310 273 250 235 239 257 275 262 251 256 257 260 260 255 262 272 274 268 263 257 242 247 263 259 247 223 217 257 255 248 252 243 251 268 234 226 237 256 257 237 221 223 229 228 223 211 209 214 217 220 221 220 222
87 113 132 136 145 150 144 138 134 132 118 107 96 88 91 96 85 90 104 94 77 95 75 14 20 28 12 355 352 0 3 44 103 76 5 64 243 263 255 237 245 268 270 262 258 251 254 263 262 269 279 274 262 256 256 241 243 260 258 238 238 247 248 240 246 255 253 250 246 235 226 226 257 264 249 227 225 231 239 238 225 216 219 219 218 219 219 220
99 103 107 104 114 114 98 96 93 99 104 95 92 84 83 85 75 82 85 82 83 44 342 310 351 355 346 340 331 323 335 57 120 113 343 162 185 310 294 248 255 271 263 258 260 255 252 257 266 281 291 283 269 265 274 263 241 249 267 266 271 278 244 232 254 251 231 225 229 227 218 214 254 256 233 221 227 236 245 246 242 230 229 226 218 218 217 218
101 98 95 90 91 89 89 94 88 92 93 94 100 87 79 74 66 83 70 63 70 27 14 296 339 346 337 336 322 303 301 268 170 189 205 208 225 326 293 254 279 286 270 258 256 254 255 261 267 275 284 287 282 271 276 285 238 239 259 265 271 284 243 221 239 238 199 207 230 230 222 217 238 254 236 234 244 252 228 215 219 218 221 222 218 216 214 215
92 90 89 84 82 81 87 94 88 91 96 103 105 89 87 73 59 69 54 50 79 15 15 348 342 348 338 332 323 314 306 275 202 194 210 230 225 255 252 244 262 286 283 271 259 256 259 264 266 267 271 278 282 272 267 271 234 240 262 260 260 283 228 209 235 236 197 239 257 265 246 223 227 261 258 260 274 276 231 200 186 191 202 206 208 212 212 213
80 77 81 80 84 83 86 95 94 94 100 101 89 86 96 76 56 46 24 26 1 358 4 352 345 344 330 324 318 319 316 284 216 209 230 245 245 269 266 242 239 250 309 291 286 285 278 275 270 267 266 265 275 274 268 254 227 247 281 256 238 65 136 243 263 241 230 259 264 275 268 240 246 267 267 268 277 270 243 219 186 173 185 194 196 203 208 210
72 68 73 81 93 94 95 104 103 99 97 91 87 82 79 73 59 34 21 24 4 353 358 356 353 344 342 352 343 319 315 333 237 223 242 255 264 272 267 249 241 259 306 302 299 302 294 289 283 277 266 255 267 266 267 264 233 246 283 267 238 133 99 267 264 272 270 261 265 268 262 258 262 267 268 267 271 264 243 222 205 188 180 194 195 198 204 208
71 68 68 80 104 110 114 119 110 98 84 79 86 77 65 66 56 21 13 8 359 8 23 9 4 4 18 37 35 26 82 70 62 67 23 262 262 271 266 253 235 243 287 306 307 299 290 288 302 327 309 268 273 267 266 276 263 257 272 284 281 251 216 229 222 218 237 248 266 263 243 249 257 262 264 263 267 262 243 223 213 205 191 196 199 200 204 207
79 77 74 86 112 123 128 128 113 86 68 74 85 74 65 60 39 13 4 359 5 25 30 14 10 22 35 44 39 40 50 47 58 55 48 59 54 45 48 47 195 243 275 294 302 295 292 284 289 320 321 291 293 285 259 263 264 263 264 268 271 260 248 237 228 235 233 232 264 263 259 257 262 270 255 241 265 262 227 205 207 204 194 195 197 201 204 206
83 83 87 98 109 124 135 132 111 77 79 92 83 75 71 59 36 16 7 12 21 16 12 11 9 18 29 26 18 19 16 16 18 4 33 53 58 77 75 58 53 14 332 327 310 320 310 292 290 302 294 273 281 292 301 271 256 248 249 254 252 252 256 244 232 235 231 210 244 248 268 271 275 286 263 256 272 244 195 180 187 191 192 196 199 203 206 207
89 93 103 107 105 110 123 125 102 78 96 97 81 76 75 62 43 22 15 31 37 16 11 15 11 10 19 21 15 9 357 347 350 0 25 36 24 38 31 37 55 39 20 3 335 352 321 289 290 303 293 282 269 253 264 280 267 256 251 252 252 256 258 240 222 217 210 199 234 223 257 287 283 303 292 279 234 182 168 167 173 182 191 196 197 199 203 207
97 107 113 111 107 106 112 115 100 88 98 98 85 75 63 57 51 32 26 32 38 30 23 20 10 0 4 17 23 14 5 2 357 357 14 27 10 353 341 343 18 4 349 335 328 4 337 290 283 294 296 294 276 245 255 273 336 293 255 252 259 265 263 239 219 162 169 215 267 249 285 260 276 329 308 211 177 169 165 165 173 182 192 197 194 188 192 201
112 116 124 120 112 105 101 99 95 92 90 87 85 66 39 39 41 23 23 30 35 37 38 33 14 360 1 12 24 21 10 8 2 357 7 12 355 336 326 314 311 319 310 306 317 331 333 308 289 285 289 302 296 280 304 309 335 320 249 272 278 251 260 263 239 211 184 187 260 280 305 243 267 329 260 183 173 179 178 170 174 186 189 194 194 186 188 196
129 122 133 132 116 103 98 91 82 81 78 71 71 52 24 17 8 1 6 21 27 16 33 34 15 9 18 14 16 16 10 3 353 359 20 6 344 334 328 312 304 308 299 291 297 297 302 313 296 280 279 298 311 359 343 331 334 334 323 350 350 292 264 268 246 237 225 186 158 169 285 260 199 328 254 195 179 182 178 166 169 177 175 187 190 194 200 195
144 133 132 126 108 90 80 68 61 72 72 64 69 58 27 8 356 356 352 356 21 304 29 42 30 15 18 16 6 354 1 4 353 358 16 360 353 348 335 327 317 313 307 297 295 294 294 302 300 290 287 293 295 300 311 322 339 0 16 13 13 356 305 276 231 234 236 198 143 156 260 264 150 31 247 192 180 178 171 164 182 161 162 225 186 181 195 195
129 125 127 117 94 72 60 51 52 67 64 55 64 51 20 3 357 360 350 338 339 224 354 51 44 19 2 5 1 339 352 8 0 358 352 328 336 334 324 321 313 309 311 311 314 312 302 297 298 297 293 284 267 275 300 312 310 316 14 24 22 11 343 311 235 218 226 204 139 153 176 194 159 155 172 171 173 178 173 194 233 154 12 271 195 175 185 198
103 99 114 107 73 53 47 48 58 74 71 65 71 47 17 6 6 6 355 345 360 19 3 20 23 8 345 345 346 332 347 5 8 3 345 308 302 311 318 319 313 308 303 299 303 304 299 300 304 305 296 279 264 266 281 293 294 297 8 22 16 5 354 341 279 224 226 217 137 107 142 204 176 168 171 170 170 175 183 199 220 280 307 249 221 198 195 203
101 92 98 93 70 53 38 39 58 91 94 93 84 54 21 16 24 24 15 359 4 27 49 44 24 360 323 324 331 322 335 357 18 8 349 342 335 328 324 323 323 321 313 306 303 299 296 306 316 327 325 293 274 269 256 250 274 328 358 10 9 360 354 1 103 197 214 207 153 84 273 197 178 173 176 179 174 176 189 199 206 251 270 243 228 211 205 209
114 102 95 92 86 69 40 37 41 127 115 109 91 70 46 38 42 38 19 1 7 35 38 27 21 328 283 292 302 302 317 346 7 353 345 30 26 352 343 344 344 338 329 326 310 301 298 303 315 338 1 331 315 319 289 282 296 319 344 359 4 357 352 6 87 134 139 116 141 194 231 199 183 184 182 184 193 192 191 190 198 222 238 231 223 217 214 213
143 131 121 118 123 119 97 331 291 270 177 170 123 96 69 41 24 360 354 347 351 46 328 304 290 272 279 294 306 312 308 318 335 314 274 129 145 118 7 353 358 356 345 325 300 294 289 287 311 322 305 317 316 309 320 317 311 321 343 347 352 356 356 9 64 96 80 117 176 203 222 204 186 186 185 185 202 206 187 188 204 215 223 226 221 216 213 213
163 150 145 156 162 147 143 288 307 329 159 174 140 120 95 346 335 344 5 356 341 321 303 300 293 303 329 337 336 334 307 294 302 285 268 272 264 237 218 282 355 359 342 323 306 299 296 287 294 293 285 293 291 293 321 313 299 322 344 337 345 4 8 20 44 66 100 166 196 215 226 214 190 187 194 199 214 224 205 204 216 208 217 227 224 217 214 221
180 163 164 171 177 168 127 332 328 342 1 41 107 269 282 298 329 1 19 360 337 324 324 322 317 337 8 4 344 334 306 291 292 287 281 281 279 273 259 251 329 349 307 319 317 298 291 294 301 293 283 285 278 281 326 305 272 311 341 333 349 9 11 24 41 51 94 156 220 222 217 211 198 199 212 217 227 235 219 191 188 194 207 218 221 221 224 235
206 185 181 178 159 114 124 136 289 313 348 12 37 330 321 331 5 28 21 353 332 331 342 344 334 351 17 352 328 335 326 316 306 299 293 287 287 289 282 269 258 243 259 293 307 306 296 293 307 300 288 290 282 280 329 328 226 287 329 321 338 5 2 7 29 42 66 142 181 184 185 188 193 205 214 214 214 218 204 165 152 166 192 207 214 227 232 236
166 168 177 176 153 142 152 188 252 264 310 0 30 40 1 352 20 50 17 339 327 332 340 338 333 346 357 318 316 321 319 314 306 303 300 294 293 294 290 282 269 250 244 273 313 332 323 311 319 312 301 305 279 269 341 27 179 252 303 289 322 7 358 354 21 35 42 103 154 173 181 185 194 205 210 203 198 203 200 180 145 118 112 168 201 225 231 232
137 149 156 154 153 154 165 207 259 269 280 19 53 59 18 355 2 24 355 327 334 344 347 336 329 342 350 341 343 333 312 312 317 310 301 297 299 296 292 297 290 259 241 239 266 318 321 315 320 321 319 330 330 294 342 32 154 213 261 201 12 22 4 358 22 34 30 55 144 167 174 188 201 207 205 197 195 192 187 189 173 110 69 72 119 212 230 235
132 144 145 143 147 140 146 217 260 284 303 60 71 75 47 17 4 13 17 16 14 7 356 322 325 345 354 352 356 352 332 341 353 337 312 304 307 300 294 310 323 285 253 249 247 255 289 309 316 317 314 328 342 326 322 344 179 181 102 97 79 62 23 339 2 38 42 67 144 122 95 114 190 194 190 185 183 179 182 192 185 151 68 48 82 152 213 223
Height
3191 3190 3190 3190 3190 3190 3190 3190 3190 3189 3189 3189 3189 3188 3188 3187 3187 3186 3186 3186 3185 3185 3185 3185 3185 3185 3185 3185 3185 3185 3185 3185 3185 3186 3187 3188 3188 3189 3190 3189 3189 3190 3190 3189 3189 3189 3188 3186 3185 3185 3185 3184 3185 3185 3184 3184 3184 3185 3185 3185 3185 3185 3186 3186 3186 3187 3188 3189 3190 3191 3191 3190 3189 3189 3191 3191 3191 3191 3191 3191 3191 3191 3191 3191 3192 3193 3194 3195
3190 3190 3190 3190 3190 3190 3189 3189 3189 3189 3188 3188 3188 3188 3187 3187 3186 3186 3185 3185 3185 3184 3184 3184 3184 3184 3185 3184 3185 3184 3184 3184 3184 3185 3186 3187 3188 3189 3189 3189 3189 3190 3190 3190 3190 3189 3188 3186 3186 3186 3186 3185 3185 3185 3185 3185 3185 3185 3185 3185 3185 3185 3186 3186 3187 3187 3188 3189 3190 3191 3191 3190 3190 3190 3191 3190 3190 3190 3190 3191 3191 3191 3191 3191 3192 3193 3194 3195
3189 3189 3189 3189 3189 3189 3189 3188 3188 3188 3188 3187 3187 3187 3186 3186 3185 3185 3185 3184 3184 3184 3184 3184 3184 3184 3184 3184 3184 3184 3184 3184 3184 3185 3185 3186 3187 3188 3189 3189 3189 3190 3190 3190 3190 3190 3188 3187 3187 3187 3187 3186 3186 3186 3186 3186 3185 3185 3185 3185 3186 3186 3186 3186 3187 3187 3188 3189 3190 3191 3191 3191 3191 3192 3191 3190 3190 3190 3190 3191 3191 3191 3191 3191 3192 3192 3194 3195
3189 3188 3188 3188 3188 3188 3187 3187 3187 3187 3186 3186 3186 3185 3185 3185 3184 3184 3184 3184 3183 3183 3183 3183 3183 3183 3184 3184 3184 3184 3184 3184 3184 3184 3185 3185 3186 3188 3188 3189 3189 3189 3190 3190 3191 3191 3189 3188 3188 3188 3188 3187 3187 3186 3186 3186 3186 3186 3185 3185 3186 3186 3186 3186 3187 3187 3188 3189 3190 3191 3191 3191 3191 3192 3191 3191 3190 3190 3190 3191 3192 3191 3191 3192 3192 3192 3194 3194
3188 3188 3187 3187 3187 3187 3186 3186 3186 3185 3185 3185 3184 3184 3184 3183 3183 3183 3182 3183 3183 3182 3182 3182 3182 3183 3183 3184 3184 3184 3184 3184 3184 3184 3184 3185 3186 3187 3188 3188 3188 3189 3190 3190 3191 3191 3190 3189 3189 3188 3188 3188 3187 3187 3186 3186 3186 3186 3185 3185 3185 3186 3186 3186 3187 3188 3188 3189 3190 3191 3191 3191 3191 3191 3191 3191 3190 3190 3190 3191 3192 3192 3191 3192 3192 3193 3194 3195
3187 3186 3186 3186 3186 3185 3185 3185 3184 3184 3184 3183 3183 3183 3182 3182 3182 3181 3181 3181 3182 3182 3182 3182 3182 3182 3182 3183 3183 3183 3184 3184 3184 3184 3184 3185 3185 3186 3187 3187 3188 3188 3189 3191 3191 3192 3190 3189 3189 3189 3189 3189 3188 3187 3187 3187 3186 3186 3185 3185 3185 3186 3186 3186 3187 3188 3188 3189 3190 3190 3191 3191 3190 3190 3191 3191 3190 3190 3190 3191 3192 3192 3192 3193 3193 3194 3194 3195
3185 3185 3185 3185 3184 3184 3184 3183 3183 3182 3182 3182 3181 3181 3181 3181 3180 3180 3180 3180 3181 3181 3181 3181 3181 3181 3181 3182 3183 3183 3183 3183 3183 3184 3184 3184 3185 3185 3186 3187 3187 3188 3189 3190 3191 3191 3190 3189 3189 3190 3190 3189 3188 3188 3188 3188 3187 3186 3185 3185 3186 3186 3186 3187 3187 3188 3189 3189 3190 3190 3191 3191 3190 3190 3190 3190 3190 3190 3190 3191 3192 3192 3192 3193 3193 3194 3195 3195
3184 3184 3183 3183 3183 3182 3182 3182 3181 3181 3180 3180 3180 3180 3180 3179 3179 3179 3179 3179 3179 3180 3180 3180 3180 3180 3180 3181 3182 3182 3182 3182 3182 3183 3184 3184 3184 3185 3186 3186 3187 3187 3188 3189 3190 3191 3190 3188 3189 3190 3190 3190 3189 3189 3189 3189 3188 3187 3186 3186 3186 3186 3186 3187 3188 3188 3189 3189 3190 3190 3190 3190 3190 3190 3190 3190 3190 3189 3190 3191 3192 3192 3193 3193 3193 3194 3194 3195
3183 3182 3182 3182 3181 3181 3180 3180 3180 3179 3179 3179 3178 3178 3178 3178 3178 3177 3177 3178 3178 3178 3178 3178 3179 3179 3179 3180 3181 3181 3181 3181 3181 3182 3183 3184 3184 3184 3185 3186 3186 3187 3188 3189 3190 3190 3190 3188 3189 3191 3191 3190 3190 3190 3190 3189 3189 3188 3187 3186 3186 3187 3187 3187 3188 3188 3189 3189 3190 3190 3190 3190 3190 3190 3190 3189 3189 3189 3190 3191 3192 3192 3193 3193 3193 3194 3194 3195
3181 3181 3181 3180 3180 3179 3179 3179 3178 3178 3178 3177 3177 3177 3176 3176 3176 3176 3176 3176 3177 3177 3177 3177 3178 3178 3179 3179 3180 3180 3180 3180 3180 3181 3182 3183 3183 3183 3184 3185 3186 3187 3188 3189 3190 3189 3190 3189 3189 3191 3191 3191 3191 3191 3190 3190 3189 3188 3188 3187 3187 3187 3187 3187 3187 3188 3188 3189 3189 3189 3190 3190 3190 3190 3189 3188 3189 3189 3189 3190 3191 3192 3193 3193 3193 3194 3194 3195
3180 3180 3179 3179 3179 3178 3178 3177 3177 3177 3176 3176 3176 3175 3175 3175 3175 3175 3174 3175 3175 3175 3175 3176 3176 3177 3178 3178 3179 3179 3179 3179 3179 3180 3182 3182 3182 3182 3183 3184 3185 3186 3187 3189 3189 3189 3189 3189 3189 3192 3192 3191 3191 3191 3190 3190 3189 3189 3189 3188 3187 3187 3187 3187 3187 3187 3187 3188 3189 3189 3189 3190 3190 3190 3188 3188 3188 3188 3189 3190 3191 3192 3192 3193 3193 3194 3194 3195
3179 3178 3178 3178 3177 3177 3176 3176 3176 3175 3175 3175 3174 3174 3174 3174 3173 3173 3173 3173 3173 3174 3174 3174 3175 3175 3176 3178 3177 3177 3177 3177 3178 3179 3180 3181 3181 3181 3182 3183 3184 3185 3187 3188 3189 3189 3189 3189 3190 3192 3192 3191 3191 3190 3190 3190 3190 3189 3189 3188 3188 3187 3187 3186 3186 3186 3186 3187 3187 3188 3189 3189 3190 3190 3188 3188 3188 3188 3188 3189 3189 3190 3191 3192 3192 3193 3194 3195
3178 3177 3177 3176 3176 3175 3175 3175 3174 3174 3174 3173 3173 3173 3172 3172 3172 3172 3172 3172 3172 3172 3172 3173 3173 3174 3175 3177 3176 3176 3176 3176 3176 3177 3178 3180 3181 3180 3181 3182 3183 3185 3186 3188 3188 3189 3189 3189 3190 3192 3192 3191 3191 3191 3191 3190 3190 3189 3189 3188 3188 3187 3187 3186 3186 3186 3186 3186 3187 3187 3187 3188 3189 3190 3188 3188 3188 3188 3188 3188 3189 3189 3190 3191 3192 3192 3193 3194
3177 3176 3176 3175 3175 3174 3174 3173 3173 3173 3172 3172 3172 3171 3171 3171 3170 3170 3170 3170 3171 3171 3171 3171 3172 3173 3174 3175 3174 3175 3176 3175 3176 3176 3177 3178 3179 3180 3180 3181 3182 3183 3185 3187 3188 3188 3188 3189 3190 3191 3191 3191 3190 3190 3191 3190 3189 3189 3188 3188 3187 3187 3186 3186 3186 3186 3186 3186 3186 3187 3187 3187 3188 3189 3189 3189 3188 3188 3188 3189 3189 3189 3189 3190 3191 3192 3192 3193
3175 3175 3174 3174 3174 3173 3173 3172 3172 3171 3171 3171 3170 3170 3170 3169 3169 3169 3169 3169 3169 3170 3170 3171 3172 3172 3173 3173 3173 3174 3175 3175 3175 3175 3176 3176 3177 3178 3179 3180 3181 3183 3184 3185 3187 3187 3187 3188 3189 3190 3191 3191 3189 3190 3190 3189 3189 3188 3188 3188 3187 3187 3186 3186 3185 3185 3185 3185 3186 3186 3186 3186 3187 3189 3189 3189 3189 3188 3188 3189 3189 3189 3189 3190 3190 3191 3192 3192
3174 3174 3173 3173 3172 3172 3172 3171 3171 3170 3170 3170 3169 3169 3168 3168 3168 3168 3168 3168 3168 3168 3168 3170 3171 3171 3172 3172 3172 3173 3173 3174 3174 3174 3175 3176 3177 3177 3178 3179 3180 3181 3183 3185 3186 3187 3186 3187 3188 3189 3189 3189 3189 3189 3189 3189 3188 3188 3188 3187 3187 3187 3186 3185 3185 3185 3185 3185 3185 3185 3185 3185 3186 3187 3188 3189 3189 3188 3188 3188 3188 3189 3190 3190 3190 3191 3192 3192
3173 3172 3172 3172 3171 3171 3170 3170 3170 3169 3169 3169 3168 3168 3168 3167 3167 3167 3167 3167 3167 3167 3167 3168 3170 3171 3171 3171 3171 3172 3173 3174 3174 3174 3175 3175 3175 3176 3177 3178 3179 3180 3182 3184 3185 3186 3186 3186 3187 3188 3188 3189 3189 3188 3188 3187 3187 3187 3187 3187 3187 3186 3186 3185 3185 3185 3185 3185 3185 3184 3184 3185 3185 3186 3187 3187 3188 3188 3188 3188 3187 3188 3189 3190 3191 3191 3192 3193
3171 3171 3171 3171 3170 3170 3169 3169 3169 3168 3168 3168 3167 3167 3167 3166 3166 3166 3166 3166 3166 3166 3166 3167 3169 3170 3170 3170 3170 3171 3172 3174 3174 3174 3174 3174 3174 3175 3176 3177 3178 3180 3182 3183 3184 3185 3186 3186 3186 3186 3187 3187 3187 3188 3187 3186 3186 3187 3187 3187 3186 3186 3185 3185 3184 3184 3184 3184 3184 3184 3183 3184 3184 3184 3185 3185 3186 3187 3187 3188 3187 3188 3188 3189 3190 3191 3192 3192
3170 3170 3169 3169 3169 3169 3168 3168 3168 3168 3167 3167 3167 3167 3166 3166 3165 3165 3165 3166 3166 3165 3166 3166 3168 3169 3170 3170 3170 3171 3172 3173 3173 3173 3173 3174 3174 3174 3175 3176 3177 3179 3181 3182 3182 3184 3185 3185 3185 3184 3184 3184 3185 3186 3185 3185 3187 3187 3187 3186 3186 3186 3184 3184 3184 3184 3184 3184 3183 3183 3183 3183 3183 3183 3183 3183 3184 3185 3187 3187 3187 3187 3187 3188 3189 3190 3191 3192
3169 3168 3168 3168 3168 3168 3168 3167 3167 3167 3167 3166 3166 3166 3166 3165 3165 3165 3166 3165 3165 3165 3165 3166 3167 3168 3169 3169 3169 3170 3170 3170 3172 3173 3172 3173 3174 3174 3175 3175 3176 3178 3179 3180 3182 3183 3183 3183 3183 3182 3182 3183 3183 3184 3185 3185 3187 3187 3186 3186 3185 3185 3183 3183 3184 3184 3184 3183 3183 3183 3183 3183 3183 3182 3182 3183 3183 3184 3185 3185 3186 3186 3187 3187 3188 3188 3189 3191
3167 3167 3167 3167 3167 3167 3167 3167 3166 3166 3166 3166 3166 3165 3165 3165 3164 3165 3166 3165 3165 3165 3165 3166 3167 3167 3168 3168 3169 3169 3169 3169 3170 3172 3172 3173 3174 3174 3174 3175 3176 3176 3178 3179 3181 3182 3182 3181 3180 3180 3181 3182 3183 3184 3185 3186 3187 3186 3186 3185 3184 3184 3182 3183 3183 3183 3183 3183 3183 3183 3182 3182 3182 3181 3181 3182 3182 3182 3182 3183 3184 3185 3186 3186 3187 3188 3188 3190
3166 3166 3166 3166 3166 3166 3166 3166 3166 3166 3165 3165 3165 3165 3165 3165 3165 3165 3166 3165 3165 3166 3166 3166 3166 3167 3167 3168 3169 3169 3169 3169 3170 3171 3172 3172 3173 3173 3174 3175 3175 3176 3177 3179 3180 3180 3180 3179 3178 3179 3180 3181 3182 3182 3184 3185 3186 3185 3184 3183 3183 3182 3182 3182 3182 3182 3183 3182 3182 3182 3181 3181 3181 3181 3180 3180 3181 3181 3181 3182 3183 3184 3185 3185 3186 3187 3188 3189
3165 3165 3165 3165 3165 3165 3165 3165 3165 3165 3165 3165 3164 3165 3164 3164 3164 3165 3165 3165 3165 3166 3166 3167 3167 3167 3168 3168 3169 3169 3169 3169 3169 3170 3171 3171 3172 3173 3174 3174 3175 3176 3177 3178 3178 3179 3178 3177 3177 3178 3179 3180 3180 3180 3182 3183 3184 3183 3182 3181 3180 3180 3181 3181 3180 3181 3181 3181 3182 3181 3180 3180 3180 3180 3179 3179 3180 3181 3181 3182 3182 3183 3183 3184 3185 3186 3187 3187
3165 3164 3164 3164 3164 3164 3164 3164 3165 3164 3164 3164 3164 3164 3164 3164 3164 3164 3164 3165 3166 3166 3167 3167 3167 3168 3168 3169 3169 3168 3168 3168 3168 3169 3170 3170 3171 3173 3173 3174 3174 3175 3176 3177 3177 3177 3177 3176 3177 3178 3179 3179 3178 3178 3180 3181 3181 3180 3180 3178 3177 3179 3180 3179 3179 3179 3180 3180 3180 3180 3180 3178 3178 3178 3177 3178 3179 3179 3180 3180 3181 3181 3182 3183 3184 3185 3185 3186
3164 3164 3164 3164 3164 3164 3164 3164 3164 3164 3164 3164 3164 3164 3164 3164 3165 3165 3165 3165 3167 3167 3167 3168 3168 3168 3169 3169 3169 3168 3167 3167 3167 3168 3169 3170 3171 3171 3172 3173 3173 3174 3175 3176 3176 3176 3175 3175 3176 3177 3177 3178 3177 3177 3178 3179 3179 3178 3178 3176 3175 3177 3178 3178 3178 3178 3179 3178 3178 3179 3180 3176 3175 3175 3175 3177 3178 3177 3178 3177 3178 3179 3180 3181 3182 3183 3184 3185
3164 3164 3163 3163 3163 3163 3163 3164 3164 3164 3164 3164 3164 3164 3164 3164 3165 3165 3165 3165 3167 3167 3168 3168 3168 3168 3169 3169 3169 3167 3166 3167 3167 3168 3168 3169 3169 3170 3172 3172 3172 3173 3174 3175 3175 3174 3173 3174 3174 3175 3175 3176 3176 3175 3176 3177 3177 3176 3176 3176 3175 3177 3178 3177 3177 3177 3177 3176 3176 3177 3177 3175 3173 3173 3174 3175 3175 3175 3176 3175 3176 3177 3178 3178 3179 3180 3182 3183
3164 3163 3163 3163 3163 3163 3163 3163 3163 3163 3163 3163 3164 3163 3164 3164 3165 3165 3164 3165 3167 3168 3168 3169 3168 3168 3168 3168 3168 3167 3167 3167 3167 3167 3167 3168 3168 3169 3171 3172 3172 3172 3173 3174 3174 3172 3172 3173 3173 3173 3173 3174 3173 3173 3173 3175 3176 3174 3174 3174 3175 3175 3176 3176 3175 3175 3174 3175 3175 3175 3175 3175 3173 3171 3172 3173 3173 3173 3174 3174 3175 3175 3175 3176 3177 3179 3180 3181
3163 3163 3163 3163 3163 3163 3163 3163 3163 3163 3163 3163 3163 3164 3164 3164 3165 3165 3164 3166 3169 3168 3168 3169 3168 3168 3168 3168 3168 3167 3167 3167 3167 3167 3167 3167 3168 3169 3170 3171 3171 3171 3172 3172 3171 3170 3170 3171 3172 3172 3172 3172 3172 3172 3172 3174 3174 3172 3172 3173 3174 3174 3174 3174 3173 3173 3173 3174 3174 3173 3174 3175 3172 3169 3170 3171 3171 3171 3170 3171 3172 3173 3173 3174 3175 3177 3178 3180
3164 3164 3163 3163 3164 3163 3163 3163 3164 3163 3163 3163 3163 3164 3164 3164 3165 3164 3164 3167 3169 3168 3168 3168 3168 3168 3168 3168 3168 3167 3167 3167 3167 3167 3167 3167 3167 3168 3168 3169 3170 3170 3170 3171 3169 3168 3168 3169 3169 3171 3171 3170 3170 3171 3171 3172 3172 3171 3171 3171 3172 3172 3171 3171 3172 3171 3172 3173 3172 3171 3172 3173 3170 3167 3168 3169 3168 3168 3168 3169 3171 3172 3172 3173 3173 3175 3176 3178
3164 3164 3164 3164 3164 3164 3163 3163 3164 3164 3164 3164 3164 3164 3164 3164 3164 3164 3165 3168 3169 3169 3168 3168 3169 3168 3167 3168 3167 3166 3166 3166 3166 3166 3166 3166 3166 3167 3167 3168 3169 3168 3168 3169 3168 3167 3166 3167 3167 3168 3169 3169 3169 3169 3170 3170 3169 3169 3170 3169 3170 3171 3170 3170 3171 3170 3171 3171 3170 3169 3170 3170 3168 3165 3166 3166 3165 3166 3166 3167 3168 3170 3170 3171 3171 3172 3174 3176
3164 3164 3164 3164 3163 3164 3163 3163 3164 3164 3164 3165 3165 3165 3165 3165 3164 3164 3167 3169 3169 3169 3168 3168 3168 3167 3166 3166 3166 3165 3165 3165 3165 3165 3166 3165 3165 3166 3166 3167 3167 3167 3167 3167 3166 3166 3165 3165 3165 3166 3167 3167 3167 3167 3167 3168 3168 3168 3169 3168 3169 3169 3169 3169 3169 3169 3170 3169 3168 3168 3168 3168 3166 3163 3163 3163 3163 3165 3166 3166 3166 3167 3168 3168 3169 3170 3171 3173
3164 3164 3164 3164 3164 3164 3164 3164 3164 3164 3165 3165 3166 3166 3165 3165 3165 3167 3169 3169 3169 3169 3168 3167 3167 3166 3166 3165 3165 3164 3164 3164 3164 3164 3164 3165 3164 3165 3165 3166 3166 3166 3165 3165 3165 3165 3164 3164 3164 3164 3165 3166 3166 3165 3165 3166 3166 3167 3168 3167 3168 3168 3169 3170 3169 3169 3169 3167 3166 3167 3167 3166 3164 3162 3162 3162 3162 3163 3164 3165 3166 3166 3167 3167 3167 3168 3169 3171
3164 3164 3164 3164 3164 3164 3165 3165 3165 3165 3166 3166 3166 3166 3165 3165 3167 3170 3170 3169 3169 3169 3168 3168 3167 3166 3165 3164 3163 3164 3164 3164 3164 3164 3165 3164 3164 3164 3164 3164 3165 3165 3165 3164 3164 3164 3163 3163 3162 3162 3163 3164 3164 3164 3164 3164 3165 3166 3166 3166 3167 3167 3170 3172 3170 3169 3168 3166 3165 3166 3166 3164 3162 3160 3160 3160 3160 3161 3162 3164 3165 3166 3167 3167 3167 3167 3168 3169
3164 3164 3164 3165 3165 3165 3165 3166 3166 3166 3167 3167 3167 3166 3165 3166 3169 3171 3170 3169 3169 3168 3168 3167 3166 3165 3164 3163 3163 3164 3164 3165 3165 3165 3165 3164 3164 3164 3163 3164 3164 3165 3164 3164 3164 3163 3163 3162 3161 3161 3162 3162 3163 3163 3163 3164 3164 3164 3164 3165 3165 3165 3168 3169 3168 3168 3167 3165 3165 3165 3164 3162 3160 3159 3159 3159 3159 3160 3161 3162 3165 3166 3167 3167 3167 3167 3168 3169
3165 3165 3165 3165 3165 3166 3166 3166 3167 3167 3168 3168 3167 3165 3165 3168 3171 3170 3169 3169 3168 3168 3167 3166 3165 3165 3164 3164 3164 3164 3164 3164 3164 3164 3164 3163 3164 3164 3164 3165 3165 3165 3163 3163 3163 3163 3162 3161 3160 3160 3160 3161 3162 3162 3163 3163 3163 3163 3164 3163 3163 3164 3166 3166 3165 3165 3164 3164 3164 3163 3162 3160 3158 3157 3157 3158 3158 3158 3159 3161 3163 3165 3165 3166 3167 3167 3167 3168
3165 3165 3165 3166 3166 3167 3167 3167 3168 3168 3169 3168 3166 3166 3168 3170 3171 3170 3170 3169 3169 3168 3167 3166 3165 3165 3165 3165 3165 3164 3164 3164 3163 3163 3162 3162 3163 3163 3164 3164 3165 3164 3162 3161 3161 3162 3161 3159 3159 3159 3159 3159 3159 3160 3162 3162 3161 3162 3162 3161 3162 3164 3164 3164 3163 3162 3163 3163 3163 3161 3160 3159 3157 3156 3156 3156 3156 3156 3158 3159 3161 3163 3165 3165 3166 3166 3167 3167
3166 3166 3166 3167 3167 3168 3168 3169 3169 3169 3169 3168 3166 3167 3170 3171 3171 3171 3170 3170 3169 3169 3167 3166 3166 3166 3166 3166 3165 3164 3164 3163 3163 3162 3162 3162 3162 3162 3163 3163 3163 3162 3161 3161 3161 3160 3160 3158 3158 3159 3158 3157 3157 3157 3158 3160 3161 3161 3161 3161 3161 3162 3161 3161 3161 3161 3162 3163 3161 3160 3159 3158 3157 3156 3155 3155 3155 3156 3157 3159 3161 3163 3164 3164 3164 3165 3165 3166
3167 3167 3167 3168 3168 3169 3169 3169 3169 3169 3169 3168 3167 3168 3170 3171 3171 3170 3170 3170 3169 3168 3167 3167 3167 3166 3166 3166 3166 3165 3164 3164 3163 3163 3162 3162 3162 3162 3162 3162 3161 3161 3160 3160 3159 3159 3159 3157 3157 3158 3158 3156 3156 3156 3156 3158 3159 3159 3159 3160 3160 3159 3159 3160 3159 3160 3161 3162 3161 3159 3157 3157 3157 3157 3155 3155 3156 3156 3157 3159 3161 3162 3162 3163 3163 3163 3165 3166
3168 3168 3169 3169 3169 3170 3170 3170 3170 3169 3169 3168 3168 3169 3171 3171 3170 3170 3170 3169 3168 3168 3168 3167 3167 3166 3166 3166 3166 3165 3164 3163 3163 3163 3162 3162 3162 3162 3161 3161 3161 3160 3159 3158 3158 3158 3159 3157 3156 3156 3157 3156 3156 3158 3159 3159 3158 3157 3157 3158 3159 3158 3158 3158 3158 3157 3158 3160 3160 3159 3157 3155 3156 3156 3156 3156 3157 3157 3158 3159 3160 3161 3162 3162 3162 3163 3164 3165
3168 3169 3170 3170 3170 3170 3171 3170 3170 3169 3169 3169 3169 3170 3171 3170 3170 3170 3169 3168 3168 3168 3168 3168 3167 3167 3166 3165 3165 3164 3164 3163 3163 3163 3162 3162 3162 3161 3161 3160 3159 3159 3159 3158 3157 3158 3158 3157 3156 3155 3156 3156 3156 3158 3160 3160 3159 3159 3158 3157 3157 3157 3157 3157 3157 3156 3156 3157 3158 3158 3157 3155 3155 3155 3156 3156 3157 3158 3159 3159 3160 3161 3161 3162 3162 3162 3163 3164
3168 3169 3170 3170 3170 3171 3171 3170 3170 3170 3169 3169 3169 3170 3170 3170 3170 3169 3168 3168 3168 3168 3168 3167 3167 3167 3166 3165 3165 3164 3163 3163 3163 3163 3162 3162 3161 3161 3161 3160 3159 3158 3158 3157 3157 3157 3157 3157 3156 3154 3154 3155 3156 3158 3159 3160 3160 3160 3159 3158 3156 3155 3157 3157 3156 3156 3155 3154 3155 3157 3157 3155 3154 3155 3155 3156 3158 3159 3159 3159 3159 3160 3161 3161 3162 3162 3163 3164
3169 3169 3170 3169 3170 3170 3170 3170 3169 3169 3169 3170 3170 3170 3170 3169 3169 3169 3167 3167 3168 3168 3167 3167 3166 3166 3166 3165 3164 3164 3164 3163 3163 3163 3162 3161 3161 3160 3160 3159 3159 3158 3158 3157 3157 3157 3157 3156 3155 3154 3154 3154 3155 3157 3158 3159 3159 3159 3158 3157 3156 3157 3157 3155 3154 3155 3155 3154 3154 3155 3156 3155 3154 3155 3155 3156 3157 3158 3159 3159 3159 3160 3160 3161 3162 3163 3163 3163
3169 3169 3169 3170 3170 3170 3171 3170 3169 3170 3170 3170 3170 3170 3170 3169 3169 3168 3167 3166 3167 3167 3167 3166 3166 3165 3165 3164 3164 3164 3164 3163 3162 3162 3162 3161 3160 3160 3159 3158 3158 3157 3157 3157 3157 3157 3157 3156 3155 3154 3152 3152 3155 3157 3157 3158 3158 3157 3156 3155 3155 3156 3155 3153 3151 3152 3153 3154 3154 3154 3156 3155 3154 3155 3156 3156 3157 3158 3158 3159 3159 3160 3160 3161 3162 3163 3163 3163
3169 3169 3169 3170 3170 3171 3171 3170 3170 3170 3170 3170 3170 3170 3169 3169 3168 3168 3167 3166 3167 3167 3167 3166 3165 3165 3164 3163 3164 3164 3163 3162 3162 3162 3161 3161 3160 3159 3158 3157 3157 3157 3156 3157 3156 3156 3156 3156 3155 3154 3153 3152 3153 3155 3156 3157 3156 3156 3156 3155 3154 3154 3152 3149 3148 3149 3152 3153 3153 3155 3156 3155 3154 3155 3155 3156 3157 3157 3158 3158 3159 3159 3160 3160 3161 3162 3163 3163
3168 3169 3169 3170 3170 3171 3171 3170 3170 3171 3171 3170 3170 3169 3169 3168 3168 3168 3168 3167 3167 3167 3166 3165 3164 3164 3163 3163 3163 3164 3163 3162 3162 3161 3160 3159 3159 3158 3157 3157 3157 3157 3156 3157 3156 3155 3156 3156 3155 3155 3155 3155 3156 3156 3157 3157 3157 3158 3157 3155 3154 3154 3152 3149 3147 3147 3150 3151 3152 3154 3155 3153 3153 3154 3154 3155 3156 3156 3156 3157 3158 3159 3159 3160 3161 3161 3162 3163
3168 3168 3169 3169 3169 3170 3170 3170 3170 3170 3170 3170 3169 3169 3169 3168 3168 3168 3167 3166 3167 3167 3165 3164 3164 3164 3163 3163 3162 3162 3162 3161 3161 3160 3159 3158 3157 3157 3157 3157 3157 3157 3156 3156 3155 3155 3155 3155 3155 3155 3156 3156 3156 3157 3158 3158 3157 3158 3158 3156 3155 3155 3154 3151 3148 3147 3149 3150 3151 3153 3153 3152 3152 3152 3153 3155 3156 3156 3157 3158 3158 3159 3159 3160 3161 3161 3162 3163
3168 3168 3168 3169 3169 3170 3170 3170 3169 3169 3169 3169 3169 3169 3168 3167 3167 3168 3167 3166 3166 3166 3165 3164 3163 3163 3163 3162 3161 3161 3160 3160 3159 3159 3158 3157 3157 3157 3157 3157 3156 3156 3155 3155 3154 3154 3154 3154 3154 3154 3155 3155 3155 3155 3156 3156 3156 3158 3158 3156 3155 3155 3154 3152 3149 3148 3149 3149 3150 3150 3151 3152 3152 3152 3153 3154 3155 3156 3157 3158 3158 3159 3159 3160 3161 3162 3162 3163
3168 3168 3168 3169 3169 3170 3170 3169 3168 3168 3168 3169 3169 3168 3168 3167 3167 3167 3167 3166 3164 3164 3165 3164 3163 3163 3163 3161 3160 3160 3160 3159 3158 3158 3157 3156 3156 3156 3156 3156 3155 3155 3154 3154 3153 3153 3153 3153 3153 3153 3153 3153 3154 3155 3155 3155 3156 3157 3157 3155 3156 3155 3154 3153 3151 3149 3148 3148 3147 3148 3149 3151 3153 3153 3153 3154 3155 3156 3157 3157 3158 3158 3158 3159 3160 3161 3162 3162
3167 3168 3168 3169 3169 3170 3169 3168 3167 3167 3168 3168 3168 3168 3167 3167 3167 3167 3166 3166 3164 3163 3163 3163 3162 3163 3162 3161 3160 3159 3159 3158 3157 3157 3156 3156 3155 3155 3155 3155 3154 3154 3153 3153 3153 3153 3153 3152 3152 3152 3152 3152 3153 3154 3154 3153 3154 3155 3154 3154 3155 3155 3155 3154 3152 3150 3148 3147 3146 3147 3148 3151 3152 3152 3153 3155 3156 3156 3157 3157 3157 3158 3158 3159 3160 3161 3161 3161
3167 3167 3168 3169 3169 3168 3168 3167 3167 3167 3167 3167 3168 3168 3167 3167 3168 3167 3166 3165 3164 3163 3163 3162 3162 3162 3162 3160 3160 3159 3158 3157 3156 3155 3155 3154 3154 3154 3153 3152 3153 3153 3152 3152 3152 3152 3152 3152 3151 3151 3151 3151 3152 3152 3152 3152 3152 3153 3153 3153 3153 3154 3154 3153 3151 3148 3147 3146 3147 3147 3148 3149 3150 3150 3152 3155 3156 3156 3157 3157 3157 3158 3158 3159 3159 3159 3159 3159
3166 3167 3167 3167 3168 3168 3168 3167 3167 3167 3167 3167 3167 3167 3167 3167 3167 3167 3166 3165 3165 3164 3163 3161 3161 3161 3161 3160 3159 3158 3157 3156 3155 3154 3153 3152 3152 3152 3151 3151 3151 3151 3151 3152 3152 3152 3152 3151 3151 3151 3150 3150 3151 3150 3150 3150 3151 3152 3153 3152 3152 3153 3153 3152 3149 3148 3146 3146 3146 3146 3146 3148 3149 3150 3152 3154 3155 3156 3156 3157 3157 3158 3158 3158 3158 3159 3159 3159
3166 3167 3167 3167 3167 3167 3168 3167 3167 3166 3167 3167 3167 3167 3167 3166 3166 3166 3166 3165 3165 3164 3162 3161 3160 3160 3159 3158 3158 3157 3155 3155 3154 3152 3152 3151 3151 3150 3150 3149 3149 3149 3150 3151 3151 3151 3151 3150 3150 3150 3150 3150 3150 3150 3149 3149 3150 3152 3152 3152 3151 3152 3152 3151 3150 3148 3147 3146 3145 3145 3146 3148 3148 3149 3151 3154 3155 3156 3156 3157 3157 3158 3158 3158 3158 3158 3158 3158